Date String (YYYY-MM-DD hh:mm:ss) UTC,Instrument flags,absolute air pressure of the measurement (hPa),sample flow rate (lpm),inlet stack bypass flow (lpm),air temperature of the measurement (°C),ambient temperature measured by the external sensor (°C),aerosol sample conditioner tube jacket temperature (°C),OPC LED temperature (°C),internal box temperature (°C),relative humidity of the measurement (%),span deviation,mass concentration of particles derived from Lorenz-Mie calculation of OPC scattering (μg/m³),mass concentration of particles derived from Lorenz-Mie calculation of OPC scattering (μg/m³),mass concentration of particles derived from Lorenz-Mie calculation of OPC scattering (μg/m³)
DateTimeUTC,F1_M11,P_M11,Q1_M11,Q2_M11,T1_M11,T2_M11,T3_M11,T4_M11,T5_M11,U1_M11,ZSPAN_M11,X2_M11,X0_M11,X1_M11
2023-08-01 21:00:00,SystemResetWarning,0834.0,5.00,000.00,032.0,025.2,000.0,039.1,031.2,33.3,0000.0,0005.21,0009.08,0004.56
2023-08-01 21:01:00,SystemResetWarning,0834.0,5.00,000.00,031.9,025.5,000.0,039.2,031.0,33.5,0000.0,0005.20,0009.19,0004.56
2023-08-01 21:02:00,SystemResetWarning,0834.1,4.98,000.00,031.8,026.0,000.0,039.3,031.1,34.7,0000.0,0005.17,0009.64,0004.56
2023-08-01 21:03:00,SystemResetWarning,0834.0,5.00,000.00,031.8,026.4,000.0,039.3,031.2,35.6,0000.0,0005.17,0009.65,0004.57
2023-08-01 21:04:00,SystemResetWarning,0834.1,5.03,000.00,032.0,026.8,000.0,039.4,031.4,35.0,0000.0,0005.18,0009.73,0004.58
2023-08-01 21:05:00,SystemResetWarning,0834.1,4.96,000.00,032.2,027.2,000.0,039.4,031.6,34.1,0000.0,0005.20,0009.77,0004.58
2023-08-01 21:06:00,SystemResetWarning,0834.1,5.02,000.00,032.3,027.5,000.0,039.5,031.7,33.9,0000.0,0005.21,0009.81,0004.58
2023-08-01 21:07:00,SystemResetWarning,0834.1,5.00,000.00,032.4,027.7,000.0,039.5,031.7,34.2,0000.0,0005.19,0009.57,0004.59
2023-08-01 21:08:00,SystemResetWarning,0834.1,4.99,000.00,032.4,026.6,000.0,039.5,031.6,34.2,0000.0,0005.20,0009.15,0004.58
2023-08-01 21:09:00,SystemResetWarning,0834.0,5.01,000.00,032.4,025.4,000.0,039.4,031.4,34.4,0000.0,0005.19,0009.59,0004.58
2023-08-01 21:10:00,SystemResetWarning,0834.0,5.00,000.00,032.3,025.2,000.0,039.4,031.2,34.5,0000.0,0005.23,0010.16,0004.59
2023-08-01 21:11:00,SystemResetWarning,0834.0,4.99,000.00,032.1,025.5,000.0,039.5,031.1,34.9,0000.0,0005.24,0010.22,0004.60
2023-08-01 21:12:00,SystemResetWarning,0834.0,5.04,000.00,032.1,025.9,000.0,039.5,031.2,34.9,0000.0,0005.27,0010.27,0004.62
2023-08-01 21:13:00,SystemResetWarning,0834.0,4.96,000.00,032.1,026.3,000.0,039.6,031.3,34.5,0000.0,0005.25,0009.86,0004.63
2023-08-01 21:14:00,SystemResetWarning,0834.0,5.02,000.00,032.2,026.8,000.0,039.6,031.4,34.6,0000.0,0005.29,0010.00,0004.64
2023-08-01 21:15:00,SystemResetWarning,0834.0,5.00,000.00,032.2,027.2,000.0,039.7,031.5,34.2,0000.0,0005.30,0009.99,0004.65
2023-08-01 21:16:00,SystemResetWarning,0834.0,4.99,000.00,032.2,027.5,000.0,039.7,031.6,34.3,0000.0,0005.31,0010.08,0004.64
2023-08-01 21:17:00,SystemResetWarning,0834.0,5.00,000.00,032.2,027.8,000.0,039.8,031.6,34.2,0000.0,0005.34,0010.17,0004.64
2023-08-01 21:18:00,SystemResetWarning,0834.0,5.00,000.00,032.2,027.6,000.0,039.7,031.7,34.5,0000.0,0005.37,0010.28,0004.64
2023-08-01 21:19:00,SystemResetWarning,0834.0,5.00,000.00,032.2,026.2,000.0,039.6,031.4,34.1,0000.0,0005.37,0010.32,0004.64
2023-08-01 21:20:00,SystemResetWarning,0834.0,5.00,000.00,032.0,025.3,000.0,039.5,031.2,34.4,0000.0,0005.38,0009.90,0004.64
2023-08-01 21:21:00,SystemResetWarning,0833.9,5.01,000.00,031.9,025.3,000.0,039.5,031.1,34.5,0000.0,0005.37,0009.37,0004.64
2023-08-01 21:22:00,SystemResetWarning,0833.9,5.00,000.00,031.7,025.7,000.0,039.5,031.1,35.1,0000.0,0005.33,0009.37,0004.63
2023-08-01 21:23:00,SystemResetWarning,0833.9,4.99,000.00,031.7,026.1,000.0,039.6,031.2,35.9,0000.0,0005.28,0009.44,0004.61
2023-08-01 21:24:00,SystemResetWarning,0833.9,5.01,000.00,031.9,026.5,000.0,039.6,031.4,35.5,0000.0,0005.28,0009.26,0004.59
2023-08-01 21:25:00,SystemResetWarning,0833.9,5.00,000.00,032.2,026.9,000.0,039.6,031.6,34.9,0000.0,0005.25,0009.02,0004.56
2023-08-01 21:26:00,SystemResetWarning,0833.9,5.00,000.00,032.4,027.3,000.0,039.6,031.7,34.8,0000.0,0005.21,0008.92,0004.54
2023-08-01 21:27:00,SystemResetWarning,0834.0,4.99,000.00,032.6,027.6,000.0,039.7,031.8,34.7,0000.0,0005.20,0008.82,0004.54
2023-08-01 21:28:00,SystemResetWarning,0833.9,4.99,000.00,032.6,027.8,000.0,039.8,031.9,34.0,0000.0,0005.16,0008.66,0004.54
2023-08-01 21:29:00,SystemResetWarning,0833.9,5.01,000.00,032.7,027.2,000.0,039.7,031.8,34.6,0000.0,0005.14,0008.71,0004.55
2023-08-01 21:30:00,SystemResetWarning,0833.8,4.99,000.00,032.7,025.8,000.0,039.7,031.6,33.9,0000.0,0005.16,0008.76,0004.56
2023-08-01 21:31:00,SystemResetWarning,0833.9,5.01,000.00,032.7,025.2,000.0,039.6,031.4,34.1,0000.0,0005.18,0009.37,0004.56
2023-08-01 21:32:00,SystemResetWarning,0833.9,5.01,000.00,032.5,025.4,000.0,039.7,031.2,34.1,0000.0,0005.20,0010.15,0004.55
2023-08-01 21:33:00,SystemResetWarning,0833.9,5.00,000.00,032.3,025.8,000.0,039.8,031.2,34.2,0000.0,0005.18,0010.04,0004.55
2023-08-01 21:34:00,SystemResetWarning,0833.8,4.99,000.00,032.2,026.3,000.0,039.8,031.3,34.4,0000.0,0005.19,0010.43,0004.56
2023-08-01 21:35:00,SystemResetWarning,0833.9,5.02,000.00,032.2,026.7,000.0,039.9,031.4,34.1,0000.0,0005.20,0010.60,0004.55
2023-08-01 21:36:00,SystemResetWarning,0833.9,4.98,000.00,032.2,027.1,000.0,039.9,031.5,33.9,0000.0,0005.15,0010.45,0004.56
2023-08-01 21:37:00,SystemResetWarning,0833.9,4.99,000.00,032.2,027.4,000.0,039.9,031.6,33.8,0000.0,0005.18,0010.53,0004.57
2023-08-01 21:38:00,SystemResetWarning,0834.0,5.01,000.00,032.2,027.7,000.0,039.9,031.7,34.3,0000.0,0005.20,0010.77,0004.57
2023-08-01 21:39:00,SystemResetWarning,0834.0,4.99,000.00,032.2,027.3,000.0,039.9,031.7,33.7,0000.0,0005.24,0011.24,0004.58
2023-08-01 21:40:00,SystemResetWarning,0833.9,4.99,000.00,032.1,025.9,000.0,039.7,031.4,33.6,0000.0,0005.25,0011.13,0004.60
2023-08-01 21:41:00,SystemResetWarning,0833.9,5.01,000.00,032.0,025.2,000.0,039.6,031.3,33.7,0000.0,0005.23,0011.08,0004.60
2023-08-01 21:42:00,SystemResetWarning,0833.9,5.01,000.00,031.9,025.4,000.0,039.6,031.1,34.4,0000.0,0005.22,0010.59,0004.61
2023-08-01 21:43:00,SystemResetWarning,0833.8,4.98,000.00,031.7,025.7,000.0,039.6,031.1,35.6,0000.0,0005.20,0009.82,0004.61
2023-08-01 21:44:00,SystemResetWarning,0833.8,5.03,000.00,031.7,026.2,000.0,039.6,031.2,35.7,0000.0,0005.19,0009.61,0004.61
2023-08-01 21:45:00,SystemResetWarning,0833.9,4.97,000.00,031.9,026.6,000.0,039.6,031.4,34.6,0000.0,0005.19,0009.29,0004.61
2023-08-01 21:46:00,SystemResetWarning,0833.8,5.00,000.00,032.0,027.0,000.0,039.6,031.5,35.1,0000.0,0005.17,0009.70,0004.61
2023-08-01 21:47:00,SystemResetWarning,0833.8,5.03,000.00,032.2,027.4,000.0,039.7,031.7,35.1,0000.0,0005.19,0009.79,0004.61
2023-08-01 21:48:00,SystemResetWarning,0833.9,4.96,000.00,032.4,027.7,000.0,039.7,031.8,34.6,0000.0,0005.14,0009.73,0004.60
2023-08-01 21:49:00,SystemResetWarning,0833.9,5.03,000.00,032.5,027.4,000.0,039.7,031.9,34.9,0000.0,0005.11,0009.55,0004.59
2023-08-01 21:50:00,SystemResetWarning,0833.9,4.95,000.00,032.7,026.0,000.0,039.6,031.7,35.1,0000.0,0005.07,0008.96,0004.58
2023-08-01 21:51:00,SystemResetWarning,0833.9,5.03,000.00,032.8,025.2,000.0,039.6,031.6,34.3,0000.0,0005.07,0009.15,0004.56
2023-08-01 21:52:00,SystemResetWarning,0833.9,4.98,000.00,032.8,025.3,000.0,039.6,031.4,34.5,0000.0,0005.08,0009.27,0004.56
2023-08-01 21:53:00,SystemResetWarning,0833.9,4.99,000.00,032.7,025.6,000.0,039.7,031.3,34.3,0000.0,0005.06,0009.19,0004.56
2023-08-01 21:54:00,SystemResetWarning,0833.9,4.99,000.00,032.6,026.1,000.0,039.8,031.4,34.9,0000.0,0005.06,0009.19,0004.57
2023-08-01 21:55:00,SystemResetWarning,0833.9,5.03,000.00,032.7,026.5,000.0,039.9,031.5,35.1,0000.0,0005.07,0009.17,0004.58
2023-08-01 21:56:00,SystemResetWarning,0834.0,4.98,000.00,032.8,026.9,000.0,040.0,031.7,34.0,0000.0,0005.09,0009.18,0004.60
2023-08-01 21:57:00,SystemResetWarning,0834.0,5.00,000.00,032.9,027.3,000.0,040.0,031.8,33.7,0000.0,0005.10,0009.17,0004.61
2023-08-01 21:58:00,SystemResetWarning,0833.9,5.02,000.00,032.9,027.6,000.0,040.1,031.8,34.4,0000.0,0005.13,0009.22,0004.61
2023-08-01 21:59:00,SystemResetWarning,0833.9,4.98,000.00,033.0,027.8,000.0,040.2,031.9,34.3,0000.0,0005.17,0009.32,0004.63
